{"data":{"norad_id":66063,"epoch":"2026-05-24T16:47:43.902816Z","epoch_age_seconds":111025,"freshness":"FRESH","line1":"1 66063U 25235F   26144.69981369  .00011432  00000+0  39743-3 0  9995","line2":"2 66063  53.1617 252.5832 0000897  84.8813 275.2290 15.30204387 34556","mean_motion":15.30204387,"eccentricity":8.97e-5,"inclination_deg":53.1617,"raan_deg":252.5832,"arg_perigee_deg":84.8813,"mean_anomaly_deg":275.229,"bstar":0.00039743,"rev_number":3455,"period_min":94.10507591232,"perigee_km":474.58722615371,"apogee_km":475.81671516505,"semimajor_km":6853.3389706594,"source":"CELESTRAK","updated_at":"2026-05-25T13:38:21.020956Z"}}